sat.trackr.live / text

‹ back to catalog

STARLINK-5325

NORAD 55292 · 2023-010Z

PAYLOAD ACTIVE UNKNOWN

§ Identity

Operator
Country
US
Launch date
2023-01-19
Launch site
AFWTR
Launch vehicle
Mass (kg)
RCS (m²)

Purposes: comms

External: N2YO · Heavens-Above · Gunter

§ Orbital elements

Epoch: 2026-05-25T03:40:24.771936Z

Period
96.11 min
Inclination
69.9987°
Eccentricity
0.0003554
Mean motion
14.98335430 rev/d
Perigee alt
569.6 km
Apogee alt
574.5 km
Semi-major
6,950.2 km
B*
1.4340e-4
RAAN
191.6216°
Arg perigee
273.6107°
Mean anomaly
86.4645°
Rev number
18,472

§ Raw data

STARLINK-53251 55292U 23010Z   26145.15306449  .00001619  00000+0  14340-3 0  99902 55292  69.9987 191.6216 0003554 273.6107  86.4645 14.98335430184727

JSON: /api/v1/satellites/55292 · /tle

For live sub-satellite position, see the globe view (requires WebGL).

§ Visibility from observer

Set your observer location to see the next 7 days of passes ≥ 10°. The values pass through the URL so the page stays shareable.

No JS? Fill the form by hand. The geolocation button needs JavaScript.